User: anonymous
Location: Caltech
(34.1382°N, 118.1253°W)
Time: 17:16:45
(UTC-07:00)
Language:

Meteor 2-4 Rocket - Orbit

View from above orbital plane
View from above orbital plane
View from above satellite
View from above satellite

Ground track
Ground track

The orbit data is extracted from the following two-line orbital elements,

1 11289U 79021B   14242.49236449  .00000033  00000-0  11406-4 0  7107
2 11289 081.2441 080.8537 0075150 252.2580 172.9446 14.11439250826702
Epoch (UTC): 30 August 2014 11:49:00
Eccentricity: 0.0075150
inclination: 81.2441°
perigee height: 800 km
apogee height: 909 km
right ascension of ascending node: 80.8537°
argument of perigee: 252.2580°
revolutions per day: 14.11439250
mean anomaly at epoch: 172.9446°
orbit number at epoch: 82670

The dashed part of the orbit path shows where the satellite is in the earth's shadow,  

DLR